Location: Aranbee
(34.0885°N, 118.2342°W)
Time: 13:44:01
(UTC+00:00)

Tiros 1 - Pass Details

Date: 28 November 2020
Orbit: 630 x 663 km, 48.4° (Epoch: 21 January)

Event Time Altitude Azimuth Distance (km) Brightness Sun altitude
Rises 06:58:46 0° 296° (WNW) 2,958 - -74.3°
Reaches altitude 10° 07:01:25 10° 284° (WNW) 2,038 - -74.6°
Maximum altitude 07:05:17 26° 228° (SW) 1,260 - -75.1°
Drops below altitude 10° 07:09:08 10° 172° (S) 2,012 - -75.5°
Sets 07:11:44 0° 160° (SSE) 2,912 - -75.8°
